EZY116 LEPA-EDDH

Flight info

Callsign EZY116
Flight time 2h 24m
Altitude 36000
Route MEROS N853 LUMAS DCT MAXIR DCT LUSOL DCT BODRU DCT OKTET DCT IRMAR DCT KINES DCT VANAS DCT MOBLO DCT UBIMA DCT SOSAL DCT KORED DCT BERSU N871 DITON DCT LOKTA DCT TEDGO DCT HAREM DCT LOHRE DCT ELNAT P605 NOLGO NOLGO3P
Aircraft A320/M-SDE3FGHIRWY/LB1

Departure

Time 2026-05-04 05:56
Airport Palma de Mallorca Airport (LEPA)

Arrival

Time 2026-05-04 08:20
Airport Hamburg Helmut Schmidt Airport (EDDH)
Time Latitude Longitude Altitude Speed Heading
2026-05-04 05:18 39.55131 2.72971 29 ft 0 kts 163°
2026-05-04 05:45 39.55185 2.72939 30 ft 4 kts 128°
2026-05-04 05:45 39.55192 2.72915 30 ft 2 kts 60°
2026-05-04 05:47 39.55189 2.72908 30 ft 0 kts 58°
2026-05-04 05:49 39.55205 2.72941 30 ft 12 kts 58°
2026-05-04 05:49 39.55250 2.73025 30 ft 10 kts 41°
2026-05-04 05:49 39.55308 2.73026 30 ft 8 kts 333°
2026-05-04 05:49 39.55351 2.72993 30 ft 7 kts 332°
2026-05-04 05:51 39.55828 2.73868 30 ft 0 kts 58°
2026-05-04 05:52 39.55850 2.73915 30 ft 10 kts 58°
2026-05-04 05:52 39.55885 2.73986 30 ft 8 kts 58°
2026-05-04 05:52 39.55923 2.74066 30 ft 11 kts 59°
2026-05-04 05:52 39.55959 2.74144 30 ft 9 kts 59°
2026-05-04 05:53 39.56006 2.74222 30 ft 16 kts 40°
2026-05-04 05:54 39.54948 2.71569 109 ft 180 kts 238°
2026-05-04 05:55 39.54239 2.70067 239 ft 215 kts 238°
2026-05-04 05:55 39.53374 2.68237 136 ft 251 kts 238°
2026-05-04 05:55 39.52490 2.66368 112 ft 235 kts 238°
2026-05-04 05:55 39.51669 2.64630 109 ft 218 kts 238°
2026-05-04 05:56 39.50906 2.63018 481 ft 192 kts 238°
2026-05-04 05:56 39.50274 2.61670 1705 ft 164 kts 237°
2026-05-04 05:56 39.49665 2.60373 2324 ft 183 kts 237°
2026-05-04 05:56 39.48945 2.58935 2886 ft 193 kts 231°
2026-05-04 05:57 39.47901 2.57744 3303 ft 211 kts 206°
2026-05-04 05:57 39.46460 2.57287 3932 ft 218 kts 178°
2026-05-04 05:57 39.44998 2.57818 4630 ft 226 kts 154°
2026-05-04 05:57 39.43517 2.58778 4961 ft 250 kts 158°
2026-05-04 05:58 39.41854 2.59653 5478 ft 264 kts 160°
2026-05-04 05:58 39.40143 2.60489 6245 ft 269 kts 161°
2026-05-04 05:58 39.38385 2.61347 7023 ft 272 kts 161°
2026-05-04 05:58 39.36671 2.62456 7808 ft 280 kts 148°
2026-05-04 05:59 39.35175 2.64108 8598 ft 286 kts 140°
2026-05-04 05:59 39.33724 2.65895 9365 ft 291 kts 140°
2026-05-04 05:59 39.32250 2.67720 10074 ft 296 kts 140°
2026-05-04 05:59 39.30716 2.69615 10365 ft 316 kts 141°
2026-05-04 06:00 39.29065 2.71644 10554 ft 340 kts 141°
2026-05-04 06:00 39.27519 2.74096 10712 ft 369 kts 120°
2026-05-04 06:00 39.26848 2.77315 11139 ft 386 kts 95°
2026-05-04 06:00 39.26796 2.80803 11715 ft 392 kts 92°
2026-05-04 06:01 39.26786 2.84354 12320 ft 398 kts 91°
2026-05-04 06:01 39.27028 2.87923 12915 ft 404 kts 80°
2026-05-04 06:03 39.36326 3.11160 16718 ft 432 kts 59°
2026-05-04 06:03 39.37825 3.14544 17219 ft 436 kts 59°
2026-05-04 06:05 39.48825 3.38953 20307 ft 461 kts 58°
2026-05-04 06:05 39.52146 3.46114 21135 ft 467 kts 58°
2026-05-04 06:05 39.53812 3.49737 21577 ft 469 kts 58°
2026-05-04 06:06 39.55480 3.53379 22005 ft 472 kts 58°
2026-05-04 06:06 39.57156 3.57045 22401 ft 474 kts 58°
2026-05-04 06:06 39.58840 3.60736 22807 ft 477 kts 59°
2026-05-04 06:06 39.60531 3.64446 23181 ft 480 kts 59°
2026-05-04 06:07 39.62210 3.68135 23570 ft 482 kts 59°
2026-05-04 06:07 39.63918 3.71891 23872 ft 485 kts 59°
2026-05-04 06:07 39.65637 3.75670 24177 ft 487 kts 59°
2026-05-04 06:07 39.67361 3.79465 24481 ft 490 kts 59°
2026-05-04 06:08 39.69094 3.83282 24793 ft 492 kts 59°
2026-05-04 06:08 39.70835 3.87126 25102 ft 494 kts 59°
2026-05-04 06:08 39.72579 3.90980 25391 ft 497 kts 59°
2026-05-04 06:08 39.74334 3.94861 25701 ft 499 kts 59°
2026-05-04 06:09 39.76066 3.98701 26020 ft 500 kts 59°
2026-05-04 06:09 39.77827 4.02610 26313 ft 503 kts 59°
2026-05-04 06:11 39.95065 4.23587 28111 ft 492 kts
2026-05-04 06:11 39.98411 4.24443 28420 ft 489 kts
2026-05-04 06:13 40.21866 4.29983 30691 ft 487 kts
2026-05-04 06:14 40.41767 4.34699 32484 ft 483 kts
2026-05-04 06:14 40.45069 4.35487 32815 ft 482 kts
2026-05-04 06:15 40.48359 4.36271 33133 ft 480 kts
2026-05-04 06:15 40.51643 4.37053 33442 ft 479 kts
2026-05-04 06:15 40.54920 4.37832 33744 ft 478 kts
2026-05-04 06:15 40.58151 4.38598 34035 ft 478 kts
2026-05-04 06:16 40.61418 4.39373 34279 ft 477 kts
2026-05-04 06:16 40.64683 4.40153 34516 ft 477 kts
2026-05-04 06:16 40.67948 4.40938 34748 ft 476 kts
2026-05-04 06:16 40.71207 4.41722 34970 ft 476 kts
2026-05-04 06:17 40.74463 4.42503 35188 ft 476 kts
2026-05-04 06:17 40.77722 4.43286 35399 ft 476 kts
2026-05-04 06:17 40.80980 4.44071 35607 ft 476 kts
2026-05-04 06:17 40.84236 4.44858 35833 ft 475 kts
2026-05-04 06:18 40.87442 4.45635 35970 ft 476 kts
2026-05-04 06:18 40.90699 4.46426 36008 ft 477 kts
2026-05-04 06:20 41.16758 4.52755 36003 ft 477 kts
2026-05-04 06:21 41.33079 4.56737 36013 ft 477 kts
2026-05-04 06:22 41.39602 4.58342 36002 ft 476 kts
2026-05-04 06:25 41.83949 4.75203 36013 ft 490 kts 26°
2026-05-04 06:26 41.89799 4.79900 36032 ft 490 kts 27°
2026-05-04 06:26 41.95640 4.84601 36024 ft 490 kts 27°
2026-05-04 06:27 42.10190 4.96389 36036 ft 489 kts 27°
2026-05-04 06:28 42.16017 5.01129 36030 ft 489 kts 27°
2026-05-04 06:28 42.21834 5.05869 36036 ft 488 kts 27°
2026-05-04 06:29 42.27608 5.10591 36035 ft 488 kts 27°
2026-05-04 06:29 42.33414 5.15340 36045 ft 488 kts 27°
2026-05-04 06:30 42.39226 5.20091 36044 ft 488 kts 27°
2026-05-04 06:30 42.45025 5.24862 36040 ft 488 kts 27°
2026-05-04 06:31 42.50785 5.29620 36058 ft 488 kts 27°
2026-05-04 06:31 42.56584 5.34403 36048 ft 488 kts 27°
2026-05-04 06:33 42.79665 5.53543 36058 ft 486 kts 27°
2026-05-04 06:34 42.85434 5.58359 36055 ft 486 kts 28°
2026-05-04 06:34 42.91191 5.63176 36069 ft 486 kts 28°
2026-05-04 06:36 43.14148 5.82500 36098 ft 485 kts 28°
2026-05-04 06:37 43.19884 5.87351 36080 ft 484 kts 28°
2026-05-04 06:37 43.25579 5.92163 36080 ft 484 kts 28°
2026-05-04 06:38 43.31311 5.97025 36089 ft 484 kts 29°
2026-05-04 06:40 43.53180 6.05410 36096 ft 469 kts 360°
2026-05-04 06:40 43.56394 6.05735 36092 ft 469 kts 360°
2026-05-04 06:40 43.62910 6.06407 36088 ft 469 kts 360°
2026-05-04 06:41 43.69425 6.07065 36097 ft 469 kts
2026-05-04 06:41 43.75930 6.08024 36095 ft 474 kts
2026-05-04 06:42 43.82097 6.11192 36091 ft 479 kts 24°
2026-05-04 06:44 44.06000 6.27525 36109 ft 478 kts 24°
2026-05-04 06:44 44.11927 6.31606 36096 ft 479 kts 24°
2026-05-04 06:45 44.17897 6.35728 36084 ft 479 kts 24°
2026-05-04 06:45 44.23878 6.39857 36087 ft 480 kts 24°
2026-05-04 06:46 44.29820 6.43962 36088 ft 480 kts 24°
2026-05-04 06:46 44.35811 6.48117 36071 ft 480 kts 24°
2026-05-04 06:48 44.59611 6.64711 36099 ft 478 kts 24°
2026-05-04 06:50 44.83930 6.78669 36107 ft 467 kts 358°
2026-05-04 06:51 44.90398 6.78334 36103 ft 465 kts 353°
2026-05-04 06:51 44.96869 6.77929 36101 ft 466 kts 354°
2026-05-04 06:52 45.03352 6.77525 36108 ft 466 kts 353°
2026-05-04 06:52 45.09790 6.77090 36107 ft 466 kts 353°
2026-05-04 06:53 45.16277 6.76643 36096 ft 467 kts 353°
2026-05-04 06:53 45.22768 6.76217 36100 ft 467 kts 353°
2026-05-04 06:54 45.29261 6.75794 36090 ft 467 kts 353°
2026-05-04 06:54 45.35752 6.75362 36084 ft 467 kts 353°
2026-05-04 06:55 45.42207 6.74927 36088 ft 467 kts 353°
2026-05-04 06:55 45.48694 6.74484 36085 ft 467 kts 353°
2026-05-04 06:57 45.74572 6.72720 36034 ft 466 kts 353°
2026-05-04 06:58 45.81050 6.72262 36037 ft 466 kts 353°
2026-05-04 06:58 45.87533 6.71813 36025 ft 467 kts 353°
2026-05-04 06:59 45.94031 6.71374 36029 ft 468 kts 353°
2026-05-04 06:59 46.00496 6.70939 36028 ft 469 kts 353°
2026-05-04 07:01 46.23225 6.74577 36032 ft 480 kts 13°
2026-05-04 07:01 46.26392 6.75921 36031 ft 481 kts 13°
2026-05-04 07:02 46.32807 6.78647 36020 ft 481 kts 13°
2026-05-04 07:02 46.39228 6.81365 36031 ft 480 kts 13°
2026-05-04 07:03 46.45643 6.84088 36036 ft 481 kts 14°
2026-05-04 07:03 46.51958 6.87094 36022 ft 483 kts 23°
2026-05-04 07:04 46.57602 6.92365 36050 ft 485 kts 41°
2026-05-04 07:04 46.62063 6.99663 36057 ft 484 kts 51°
2026-05-04 07:05 46.66287 7.07294 36060 ft 484 kts 51°
2026-05-04 07:05 46.70473 7.14875 36059 ft 484 kts 51°
2026-05-04 07:06 46.76795 7.26353 36066 ft 484 kts 51°
2026-05-04 07:07 46.81004 7.34003 36062 ft 484 kts 51°
2026-05-04 07:09 46.97661 7.64609 36048 ft 480 kts 52°
2026-05-04 07:09 47.01808 7.72275 36038 ft 480 kts 52°
2026-05-04 07:10 47.05959 7.79952 36035 ft 480 kts 52°
2026-05-04 07:12 47.21201 8.12037 36033 ft 481 kts 59°
2026-05-04 07:12 47.24730 8.20342 36038 ft 481 kts 59°
2026-05-04 07:13 47.28303 8.28675 36040 ft 482 kts 54°
2026-05-04 07:13 47.32917 8.35787 36030 ft 481 kts 36°
2026-05-04 07:14 47.46807 8.49340 36037 ft 481 kts 32°
2026-05-04 07:15 47.52383 8.54776 36054 ft 481 kts 32°
2026-05-04 07:15 47.57977 8.60229 36054 ft 481 kts 32°
2026-05-04 07:16 47.63566 8.65690 36051 ft 481 kts 32°
2026-05-04 07:16 47.69121 8.71120 36051 ft 481 kts 32°
2026-05-04 07:17 47.74699 8.76597 36046 ft 481 kts 32°
2026-05-04 07:17 47.80275 8.82089 36044 ft 481 kts 32°
2026-05-04 07:18 47.85847 8.87584 36029 ft 481 kts 32°
2026-05-04 07:18 47.91414 8.93095 36026 ft 480 kts 32°
2026-05-04 07:19 47.96930 8.98572 36030 ft 480 kts 32°
2026-05-04 07:19 48.02480 9.04089 36035 ft 479 kts 32°
2026-05-04 07:20 48.08029 9.09618 36056 ft 479 kts 32°
2026-05-04 07:20 48.13608 9.15067 36042 ft 478 kts 27°
2026-05-04 07:22 48.35897 9.21500 36029 ft 469 kts
2026-05-04 07:22 48.39141 9.22052 36030 ft 468 kts
2026-05-04 07:23 48.45617 9.23156 36029 ft 468 kts
2026-05-04 07:23 48.52047 9.24258 36030 ft 468 kts
2026-05-04 07:24 48.58518 9.25362 36027 ft 468 kts
2026-05-04 07:24 48.64991 9.26447 36029 ft 468 kts
2026-05-04 07:26 48.90855 9.30363 36034 ft 468 kts
2026-05-04 07:27 48.97337 9.31353 36044 ft 468 kts
2026-05-04 07:27 49.03816 9.32343 36040 ft 468 kts
2026-05-04 07:28 49.10241 9.33339 36036 ft 467 kts
2026-05-04 07:28 49.16709 9.34355 36042 ft 467 kts
2026-05-04 07:29 49.23182 9.35365 36037 ft 467 kts
2026-05-04 07:29 49.29647 9.36373 36050 ft 468 kts
2026-05-04 07:30 49.35035 9.37221 36031 ft 468 kts
2026-05-04 07:30 49.42581 9.38402 36035 ft 469 kts
2026-05-04 07:31 49.49086 9.39419 36033 ft 470 kts
2026-05-04 07:33 49.74037 9.43377 36045 ft 470 kts
2026-05-04 07:33 49.80502 9.44408 36040 ft 471 kts
2026-05-04 07:34 49.87022 9.45464 36045 ft 471 kts
2026-05-04 07:34 49.93543 9.46529 36039 ft 471 kts
2026-05-04 07:35 50.00070 9.47586 36037 ft 471 kts
2026-05-04 07:35 50.06552 9.48632 36047 ft 472 kts
2026-05-04 07:36 50.13088 9.49739 36035 ft 473 kts
2026-05-04 07:38 50.39198 9.54368 36029 ft 473 kts
2026-05-04 07:38 50.45733 9.55536 36028 ft 473 kts
2026-05-04 07:39 50.52264 9.56713 36037 ft 472 kts
2026-05-04 07:39 50.58790 9.57883 36031 ft 472 kts
2026-05-04 07:40 50.65311 9.59059 36028 ft 471 kts
2026-05-04 07:40 50.71783 9.60234 36023 ft 471 kts
2026-05-04 07:41 50.78291 9.61408 36021 ft 471 kts
2026-05-04 07:41 50.84803 9.62585 36010 ft 471 kts
2026-05-04 07:42 50.91308 9.63759 36010 ft 471 kts
2026-05-04 07:42 50.97778 9.64931 36015 ft 471 kts
2026-05-04 07:43 51.04287 9.66125 36008 ft 471 kts
2026-05-04 07:43 51.10799 9.67329 36007 ft 471 kts
2026-05-04 07:44 51.17307 9.68515 36025 ft 471 kts
2026-05-04 07:44 51.23823 9.69676 36004 ft 471 kts
2026-05-04 07:45 51.30307 9.70727 35996 ft 472 kts
2026-05-04 07:45 51.36842 9.71758 36010 ft 472 kts
2026-05-04 07:46 51.43384 9.72810 36022 ft 473 kts
2026-05-04 07:46 51.49932 9.73902 36007 ft 474 kts
2026-05-04 07:47 51.56439 9.75134 35998 ft 475 kts
2026-05-04 07:49 51.82664 9.80170 35986 ft 476 kts
2026-05-04 07:49 51.89240 9.81432 36007 ft 476 kts
2026-05-04 07:50 51.95813 9.82700 36002 ft 476 kts
2026-05-04 07:50 52.02386 9.83973 35995 ft 476 kts
2026-05-04 07:51 52.08916 9.85255 35998 ft 476 kts
2026-05-04 07:51 52.12204 9.85899 35887 ft 476 kts
2026-05-04 07:51 52.15485 9.86542 35641 ft 475 kts
2026-05-04 07:52 52.18771 9.87187 35391 ft 475 kts
2026-05-04 07:52 52.22058 9.87832 35144 ft 476 kts
2026-05-04 07:52 52.25330 9.88604 34896 ft 475 kts
2026-05-04 07:52 52.28504 9.89929 34645 ft 466 kts 11°
2026-05-04 07:53 52.31568 9.91289 34287 ft 460 kts 11°
2026-05-04 07:54 52.53914 10.01102 27671 ft 484 kts 11°
2026-05-04 07:55 52.57101 10.02540 26957 ft 479 kts 11°
2026-05-04 07:55 52.60297 10.03982 26270 ft 475 kts 10°
2026-05-04 07:55 52.63482 10.05412 25574 ft 473 kts 10°
2026-05-04 07:55 52.66641 10.06825 24909 ft 470 kts 11°
2026-05-04 07:56 52.69783 10.08230 24243 ft 467 kts 11°
2026-05-04 07:56 52.72903 10.09628 23577 ft 464 kts 11°
2026-05-04 07:56 52.76017 10.10999 22855 ft 460 kts
2026-05-04 07:56 52.79138 10.11784 22254 ft 448 kts 359°
2026-05-04 07:57 52.82228 10.11926 21683 ft 442 kts 355°
2026-05-04 07:57 52.85246 10.12015 21108 ft 439 kts 355°
2026-05-04 07:57 52.88288 10.12109 20542 ft 436 kts 355°
2026-05-04 07:57 52.91301 10.12213 20017 ft 431 kts 355°
2026-05-04 07:58 52.94284 10.12323 19499 ft 426 kts 355°
2026-05-04 07:58 52.97228 10.12430 19102 ft 419 kts 355°
2026-05-04 07:58 53.00090 10.12536 18978 ft 404 kts 355°
2026-05-04 07:58 53.02857 10.12641 18858 ft 391 kts 355°
2026-05-04 07:59 53.05534 10.12737 18732 ft 377 kts 355°
2026-05-04 07:59 53.08085 10.12828 18423 ft 360 kts 355°
2026-05-04 07:59 53.10529 10.12907 17826 ft 353 kts 355°
2026-05-04 07:59 53.12971 10.12978 17168 ft 348 kts 355°
2026-05-04 08:00 53.15375 10.13048 16530 ft 344 kts 355°
2026-05-04 08:00 53.17748 10.13120 15912 ft 339 kts 355°
2026-05-04 08:00 53.20091 10.13187 15308 ft 335 kts 355°
2026-05-04 08:02 53.35588 10.13687 11810 ft 312 kts 355°
2026-05-04 08:02 53.37694 10.13307 11444 ft 300 kts 342°
2026-05-04 08:02 53.39629 10.12193 10922 ft 288 kts 328°
2026-05-04 08:03 53.41303 10.10463 10695 ft 282 kts 317°
2026-05-04 08:03 53.42723 10.08227 10466 ft 278 kts 308°
2026-05-04 08:03 53.44014 10.05825 10248 ft 277 kts 308°
2026-05-04 08:03 53.45303 10.03432 10014 ft 276 kts 308°
2026-05-04 08:04 53.46568 10.01086 9777 ft 273 kts 308°
2026-05-04 08:04 53.47821 9.98770 9648 ft 263 kts 308°
2026-05-04 08:04 53.48768 9.96288 9513 ft 246 kts 285°
2026-05-04 08:04 53.48930 9.93539 9343 ft 234 kts 260°
2026-05-04 08:05 53.48354 9.91062 9260 ft 229 kts 236°
2026-05-04 08:05 53.47343 9.88972 9116 ft 231 kts 232°
2026-05-04 08:05 53.46309 9.86904 8944 ft 231 kts 232°
2026-05-04 08:05 53.45276 9.84847 8788 ft 230 kts 232°
2026-05-04 08:06 53.44260 9.82821 8637 ft 230 kts 232°
2026-05-04 08:06 53.43235 9.80772 8482 ft 230 kts 232°
2026-05-04 08:06 53.42209 9.78717 8329 ft 229 kts 232°
2026-05-04 08:06 53.41188 9.76672 8178 ft 229 kts 232°
2026-05-04 08:08 53.34138 9.62588 6152 ft 224 kts 232°
2026-05-04 08:08 53.33139 9.60594 5989 ft 224 kts 232°
2026-05-04 08:10 53.34001 9.45029 3933 ft 228 kts 341°
2026-05-04 08:11 53.35598 9.45029 3984 ft 233 kts 14°
2026-05-04 08:11 53.37890 9.48420 3999 ft 217 kts 48°
2026-05-04 08:11 53.38843 9.50362 4000 ft 215 kts 47°
2026-05-04 08:12 53.39800 9.52273 4011 ft 210 kts 47°
2026-05-04 08:12 53.40693 9.54052 4002 ft 189 kts 47°
2026-05-04 08:12 53.41488 9.55632 3985 ft 172 kts 46°
2026-05-04 08:12 53.42249 9.57142 4007 ft 167 kts 46°
2026-05-04 08:13 53.42984 9.58603 4006 ft 162 kts 46°
2026-05-04 08:13 53.43709 9.60045 4003 ft 162 kts 46°
2026-05-04 08:13 53.44435 9.61489 3900 ft 161 kts 46°
2026-05-04 08:13 53.45154 9.62922 3785 ft 160 kts 46°
2026-05-04 08:14 53.45871 9.64350 3645 ft 159 kts 45°
2026-05-04 08:14 53.46582 9.65769 3526 ft 159 kts 46°
2026-05-04 08:14 53.47292 9.67186 3401 ft 158 kts 46°
2026-05-04 08:16 53.52163 9.76929 2981 ft 155 kts 46°
2026-05-04 08:16 53.52857 9.78321 2839 ft 156 kts 47°
2026-05-04 08:16 53.53549 9.79710 2658 ft 154 kts 47°
2026-05-04 08:17 53.54233 9.81082 2460 ft 153 kts 48°
2026-05-04 08:17 53.54900 9.82423 2256 ft 151 kts 47°
2026-05-04 08:17 53.55570 9.83767 2048 ft 149 kts 47°
2026-05-04 08:17 53.56236 9.85107 1847 ft 148 kts 47°
2026-05-04 08:19 53.60840 9.94383 429 ft 148 kts 45°
2026-05-04 08:19 53.61491 9.95698 247 ft 146 kts 47°
2026-05-04 08:20 53.62136 9.97000 56 ft 144 kts 47°
2026-05-04 08:20 53.62649 9.98039 52 ft 74 kts 51°
2026-05-04 08:20 53.62841 9.98433 53 ft 34 kts 49°
2026-05-04 08:20 53.62995 9.98750 51 ft 35 kts 51°
2026-05-04 08:21 53.63090 9.99113 52 ft 27 kts 91°
2026-05-04 08:21 53.63088 9.99163 51 ft 0 kts 97°
2026-05-04 08:21 53.63087 9.99174 51 ft 1 kts 97°
2026-05-04 08:21 53.63087 9.99183 51 ft 1 kts 97°
2026-05-04 08:22 53.63086 9.99186 51 ft 0 kts 97°
2026-05-04 08:22 53.63085 9.99201 51 ft 7 kts 97°
2026-05-04 08:24 53.63098 9.99866 51 ft 8 kts 152°
2026-05-04 08:24 53.63055 9.99906 51 ft 7 kts 152°
2026-05-04 08:24 53.63017 9.99938 51 ft 6 kts 153°
2026-05-04 08:24 53.62954 9.99994 51 ft 13 kts 152°
2026-05-04 08:25 53.62877 10.00057 49 ft 11 kts 155°
2026-05-04 08:25 53.62810 10.00114 51 ft 10 kts 153°
2026-05-04 08:25 53.62757 10.00159 51 ft 5 kts 150°
2026-05-04 08:25 53.62751 10.00190 51 ft 2 kts 92°
2026-05-04 08:26 53.62754 10.00215 51 ft 2 kts 73°
2026-05-04 08:27 53.62773 10.00275 50 ft 0 kts 62°
2026-05-04 08:28 53.62774 10.00277 50 ft 0 kts 62°